Time,TemperatureF,DewpointF,PressureIn,WindDirection,WindDirectionDegrees,WindSpeedMPH,WindSpeedGustMPH,Humidity,HourlyPrecipIn,Conditions,Clouds,dailyrainin,SoftwareType,DateUTC
2013-02-16 00:00:00,66.5,40.0,30.14,SW,235,2.0,8.0,38,0.00,,,0.00,,2013-02-16 08:00:00,
2013-02-16 00:10:00,66.0,40.0,30.14,WSW,254,5.0,8.0,38,0.00,,,0.00,,2013-02-16 08:10:00,
2013-02-16 00:20:00,65.3,40.0,30.15,SW,227,0.0,8.0,40,0.00,,,0.00,,2013-02-16 08:20:00,
2013-02-16 00:30:00,65.0,40.0,30.14,SSW,193,0.0,6.0,40,0.00,,,0.00,,2013-02-16 08:30:00,
2013-02-16 00:40:00,65.0,40.0,30.14,WSW,258,3.0,10.0,40,0.00,,,0.00,,2013-02-16 08:40:00,
2013-02-16 00:50:00,65.7,41.0,30.14,West,263,3.0,10.0,40,0.00,,,0.00,,2013-02-16 08:50:00,
2013-02-16 01:00:00,65.7,40.0,30.14,SSW,208,1.0,7.0,39,0.00,,,0.00,,2013-02-16 09:00:00,
2013-02-16 01:10:00,65.2,40.0,30.14,NE,52,4.0,12.0,40,0.00,,,0.00,,2013-02-16 09:10:00,
2013-02-16 01:20:00,65.4,40.0,30.14,East,99,8.0,19.0,40,0.00,,,0.00,,2013-02-16 09:20:00,
2013-02-16 01:30:00,65.7,40.0,30.14,NE,46,10.0,14.0,39,0.00,,,0.00,,2013-02-16 09:30:00,
2013-02-16 01:40:00,65.8,39.0,30.14,ENE,64,7.0,17.0,38,0.00,,,0.00,,2013-02-16 09:40:00,
2013-02-16 01:50:00,65.9,40.0,30.14,NE,46,14.0,19.0,38,0.00,,,0.00,,2013-02-16 09:50:00,
2013-02-16 02:00:00,65.6,39.0,30.13,NE,42,7.0,16.0,37,0.00,,,0.00,,2013-02-16 10:00:00,
2013-02-16 02:10:00,65.5,39.0,30.13,NE,42,9.0,14.0,37,0.00,,,0.00,,2013-02-16 10:10:00,
2013-02-16 02:20:00,65.4,38.0,30.12,South,180,0.0,11.0,36,0.00,,,0.00,,2013-02-16 10:20:00,
2013-02-16 02:30:00,65.3,37.0,30.12,ENE,66,9.0,12.0,35,0.00,,,0.00,,2013-02-16 10:30:00,
2013-02-16 02:40:00,65.6,36.0,30.11,NE,55,10.0,17.0,34,0.00,,,0.00,,2013-02-16 10:40:00,
2013-02-16 02:50:00,65.7,37.0,30.11,ENE,59,14.0,17.0,34,0.00,,,0.00,,2013-02-16 10:50:00,
2013-02-16 03:00:00,66.2,35.0,30.11,NE,54,14.0,17.0,32,0.00,,,0.00,,2013-02-16 11:00:00,
2013-02-16 03:10:00,66.4,36.0,30.11,ENE,58,16.0,18.0,32,0.00,,,0.00,,2013-02-16 11:10:00,
2013-02-16 03:20:00,66.7,35.0,30.10,ENE,65,17.0,20.0,31,0.00,,,0.00,,2013-02-16 11:20:00,
2013-02-16 03:30:00,66.8,34.0,30.10,ENE,59,13.0,19.0,30,0.00,,,0.00,,2013-02-16 11:30:00,
2013-02-16 03:40:00,66.7,34.0,30.10,NE,56,15.0,19.0,30,0.00,,,0.00,,2013-02-16 11:40:00,
2013-02-16 03:50:00,66.3,35.0,30.10,ENE,63,14.0,18.0,31,0.00,,,0.00,,2013-02-16 11:50:00,
2013-02-16 04:00:00,65.9,34.0,30.10,ENE,66,9.0,17.0,31,0.00,,,0.00,,2013-02-16 12:00:00,
2013-02-16 04:10:00,65.6,35.0,30.10,ENE,60,12.0,18.0,32,0.00,,,0.00,,2013-02-16 12:10:00,
2013-02-16 04:20:00,65.6,34.0,30.10,ENE,67,14.0,16.0,31,0.00,,,0.00,,2013-02-16 12:20:00,
2013-02-16 04:30:00,66.0,34.0,30.10,ENE,72,11.0,17.0,30,0.00,,,0.00,,2013-02-16 12:30:00,
2013-02-16 04:40:00,65.7,34.0,30.10,ENE,63,14.0,17.0,31,0.00,,,0.00,,2013-02-16 12:40:00,
2013-02-16 04:50:00,65.8,33.0,30.10,NE,53,12.0,16.0,30,0.00,,,0.00,,2013-02-16 12:50:00,
2013-02-16 05:00:00,65.7,33.0,30.10,ENE,63,12.0,16.0,30,0.00,,,0.00,,2013-02-16 13:00:00,
2013-02-16 05:10:00,66.1,33.0,30.10,ENE,67,12.0,16.0,29,0.00,,,0.00,,2013-02-16 13:10:00,
2013-02-16 05:20:00,66.3,33.0,30.10,ENE,68,16.0,18.0,29,0.00,,,0.00,,2013-02-16 13:20:00,
2013-02-16 05:30:00,66.3,33.0,30.09,ENE,65,16.0,17.0,29,0.00,,,0.00,,2013-02-16 13:30:00,
2013-02-16 05:40:00,66.0,34.0,30.09,ENE,67,13.0,16.0,30,0.00,,,0.00,,2013-02-16 13:40:00,
2013-02-16 05:50:00,65.4,33.0,30.10,ENE,63,14.0,17.0,30,0.00,,,0.00,,2013-02-16 13:50:00,
2013-02-16 06:00:00,65.7,33.0,30.10,ENE,57,9.0,17.0,30,0.00,,,0.00,,2013-02-16 14:00:00,
2013-02-16 06:10:00,64.8,34.0,30.09,East,87,1.0,8.0,32,0.00,,,0.00,,2013-02-16 14:10:00,
2013-02-16 06:20:00,63.0,40.0,30.10,East,87,7.0,7.0,42,0.00,,,0.00,,2013-02-16 14:20:00,
2013-02-16 06:30:00,63.1,36.0,30.09,East,86,3.0,9.0,37,0.00,,,0.00,,2013-02-16 14:30:00,
2013-02-16 06:40:00,63.1,35.0,30.10,East,79,2.0,5.0,35,0.00,,,0.00,,2013-02-16 14:40:00,
2013-02-16 06:50:00,63.0,36.0,30.10,ENE,63,3.0,6.0,36,0.00,,,0.00,,2013-02-16 14:50:00,
2013-02-16 07:00:00,61.7,45.0,30.10,East,98,1.0,3.0,54,0.00,,,0.00,,2013-02-16 15:00:00,
2013-02-16 07:10:00,59.6,44.0,30.10,NNW,342,0.0,2.0,57,0.00,,,0.00,,2013-02-16 15:10:00,
2013-02-16 07:20:00,58.1,45.0,30.10,NNW,329,0.0,1.0,61,0.00,,,0.00,,2013-02-16 15:20:00,
2013-02-16 07:30:00,59.1,40.0,30.10,East,88,2.0,5.0,50,0.00,,,0.00,,2013-02-16 15:30:00,
2013-02-16 07:40:00,62.4,37.0,30.11,ENE,74,7.0,8.0,39,0.00,,,0.00,,2013-02-16 15:40:00,
2013-02-16 07:50:00,63.8,37.0,30.11,ENE,69,3.0,10.0,37,0.00,,,0.00,,2013-02-16 15:50:00,
2013-02-16 08:00:00,64.1,38.0,30.11,East,83,5.0,8.0,38,0.00,,,0.00,,2013-02-16 16:00:00,
2013-02-16 08:10:00,64.9,37.0,30.11,ENE,59,10.0,10.0,35,0.00,,,0.00,,2013-02-16 16:10:00,
2013-02-16 08:20:00,65.2,38.0,30.11,ENE,67,13.0,13.0,36,0.00,,,0.00,,2013-02-16 16:20:00,
2013-02-16 08:30:00,65.4,37.0,30.11,East,79,14.0,15.0,35,0.00,,,0.00,,2013-02-16 16:30:00,
2013-02-16 08:40:00,65.8,38.0,30.11,ENE,69,12.0,15.0,36,0.00,,,0.00,,2013-02-16 16:40:00,
2013-02-16 08:50:00,66.5,39.0,30.11,East,81,11.0,14.0,36,0.00,,,0.00,,2013-02-16 16:50:00,
2013-02-16 09:00:00,67.4,40.0,30.11,ENE,76,8.0,14.0,36,0.00,,,0.00,,2013-02-16 17:00:00,
2013-02-16 09:10:00,67.6,42.0,30.11,East,101,1.0,10.0,39,0.00,,,0.00,,2013-02-16 17:10:00,
2013-02-16 09:20:00,63.8,46.0,30.11,WNW,288,1.0,6.0,52,0.00,,,0.00,,2013-02-16 17:20:00,
2013-02-16 09:30:00,61.7,47.0,30.11,West,279,3.0,5.0,59,0.00,,,0.00,,2013-02-16 17:30:00,
2013-02-16 09:40:00,60.8,50.0,30.11,West,281,0.0,3.0,68,0.00,,,0.00,,2013-02-16 17:40:00,
2013-02-16 09:50:00,61.3,51.0,30.11,West,281,0.0,1.0,68,0.00,,,0.00,,2013-02-16 17:50:00,
2013-02-16 10:00:00,61.3,51.0,30.11,West,281,0.0,0.0,70,0.00,,,0.00,,2013-02-16 18:00:00,
2013-02-16 10:10:00,62.0,51.0,30.11,West,281,0.0,1.0,66,0.00,,,0.00,,2013-02-16 18:10:00,
2013-02-16 10:20:00,62.3,49.0,30.11,West,281,0.0,0.0,62,0.00,,,0.00,,2013-02-16 18:20:00,
2013-02-16 10:30:00,63.0,50.0,30.11,West,281,0.0,3.0,63,0.00,,,0.00,,2013-02-16 18:30:00,
2013-02-16 10:40:00,61.6,51.0,30.10,WNW,283,3.0,5.0,69,0.00,,,0.00,,2013-02-16 18:40:00,
2013-02-16 10:50:00,60.4,52.0,30.10,West,281,0.0,6.0,73,0.00,,,0.00,,2013-02-16 18:50:00,
2013-02-16 11:00:00,60.9,53.0,30.10,West,271,3.0,5.0,74,0.00,,,0.00,,2013-02-16 19:00:00,
2013-02-16 11:10:00,61.9,54.0,30.10,West,269,2.0,4.0,74,0.00,,,0.00,,2013-02-16 19:10:00,
2013-02-16 11:20:00,61.1,53.0,30.09,West,275,5.0,5.0,74,0.00,,,0.00,,2013-02-16 19:20:00,
2013-02-16 11:30:00,61.4,53.0,30.09,West,265,5.0,6.0,73,0.00,,,0.00,,2013-02-16 19:30:00,
2013-02-16 11:40:00,62.1,52.0,30.09,West,279,4.0,6.0,70,0.00,,,0.00,,2013-02-16 19:40:00,
2013-02-16 11:50:00,61.6,51.0,30.08,West,275,3.0,7.0,69,0.00,,,0.00,,2013-02-16 19:50:00,
2013-02-16 12:00:00,63.0,50.0,30.08,West,281,2.0,7.0,63,0.00,,,0.00,,2013-02-16 20:00:00,
2013-02-16 12:10:00,63.1,49.0,30.08,West,271,3.0,6.0,61,0.00,,,0.00,,2013-02-16 20:10:00,
2013-02-16 12:20:00,62.9,48.0,30.07,West,269,5.0,8.0,58,0.00,,,0.00,,2013-02-16 20:20:00,
2013-02-16 12:30:00,63.2,47.0,30.07,West,277,7.0,9.0,56,0.00,,,0.00,,2013-02-16 20:30:00,
2013-02-16 12:40:00,62.7,49.0,30.06,West,281,5.0,9.0,60,0.00,,,0.00,,2013-02-16 20:40:00,
2013-02-16 12:50:00,62.9,47.0,30.06,West,281,9.0,11.0,57,0.00,,,0.00,,2013-02-16 20:50:00,
2013-02-16 13:00:00,63.4,47.0,30.05,WNW,294,6.0,10.0,56,0.00,,,0.00,,2013-02-16 21:00:00,
2013-02-16 13:10:00,63.4,47.0,30.05,West,267,10.0,11.0,55,0.00,,,0.00,,2013-02-16 21:10:00,
2013-02-16 13:20:00,62.7,47.0,30.05,WNW,288,9.0,11.0,56,0.00,,,0.00,,2013-02-16 21:20:00,
2013-02-16 13:30:00,62.3,48.0,30.04,WNW,286,6.0,13.0,59,0.00,,,0.00,,2013-02-16 21:30:00,
2013-02-16 13:40:00,63.1,47.0,30.04,NW,316,10.0,14.0,56,0.00,,,0.00,,2013-02-16 21:40:00,
2013-02-16 13:50:00,62.9,46.0,30.03,NW,325,6.0,14.0,55,0.00,,,0.00,,2013-02-16 21:50:00,
2013-02-16 14:00:00,62.9,47.0,30.03,WNW,283,6.0,13.0,57,0.00,,,0.00,,2013-02-16 22:00:00,
2013-02-16 14:10:00,62.5,48.0,30.03,West,273,7.0,12.0,59,0.00,,,0.00,,2013-02-16 22:10:00,
2013-02-16 14:20:00,62.4,49.0,30.03,NW,317,5.0,9.0,62,0.00,,,0.00,,2013-02-16 22:20:00,
2013-02-16 14:30:00,62.6,51.0,30.02,West,270,6.0,10.0,66,0.00,,,0.00,,2013-02-16 22:30:00,
2013-02-16 14:40:00,62.0,51.0,30.02,West,269,10.0,12.0,68,0.00,,,0.00,,2013-02-16 22:40:00,
2013-02-16 14:50:00,62.1,51.0,30.01,West,270,8.0,10.0,68,0.00,,,0.00,,2013-02-16 22:50:00,
2013-02-16 15:00:00,62.3,52.0,30.01,West,281,7.0,10.0,69,0.00,,,0.00,,2013-02-16 23:00:00,
2013-02-16 15:10:00,61.5,52.0,30.01,NW,306,8.0,12.0,70,0.00,,,0.00,,2013-02-16 23:10:00,
2013-02-16 15:20:00,61.0,52.0,30.01,NW,317,7.0,10.0,71,0.00,,,0.00,,2013-02-16 23:20:00,
2013-02-16 15:30:00,61.2,52.0,30.01,West,281,8.0,10.0,71,0.00,,,0.00,,2013-02-16 23:30:00,
2013-02-16 15:40:00,61.9,51.0,30.01,West,277,7.0,10.0,67,0.00,,,0.00,,2013-02-16 23:40:00,
2013-02-16 15:50:00,62.9,52.0,30.01,West,276,5.0,6.0,67,0.00,,,0.00,,2013-02-16 23:50:00,
2013-02-16 16:00:00,63.7,52.0,30.01,WNW,286,1.0,5.0,65,0.00,,,0.00,,2013-02-17 00:00:00,
2013-02-16 16:10:00,63.8,51.0,30.00,WNW,284,2.0,4.0,64,0.00,,,0.00,,2013-02-17 00:10:00,
2013-02-16 16:20:00,64.2,52.0,30.00,WNW,290,2.0,3.0,64,0.00,,,0.00,,2013-02-17 00:20:00,
2013-02-16 16:30:00,65.3,52.0,30.00,WNW,290,0.0,3.0,63,0.00,,,0.00,,2013-02-17 00:30:00,
2013-02-16 16:40:00,66.6,53.0,30.00,WNW,290,0.0,1.0,62,0.00,,,0.00,,2013-02-17 00:40:00,
2013-02-16 16:50:00,67.7,52.0,30.00,WNW,290,0.0,1.0,58,0.00,,,0.00,,2013-02-17 00:50:00,
2013-02-16 17:00:00,68.2,50.0,30.00,NNW,334,2.0,3.0,53,0.00,,,0.00,,2013-02-17 01:00:00,
2013-02-16 17:10:00,69.6,47.0,30.00,NNW,334,0.0,3.0,44,0.00,,,0.00,,2013-02-17 01:10:00,
2013-02-16 17:20:00,70.6,29.0,30.00,NNW,334,0.0,3.0,21,0.00,,,0.00,,2013-02-17 01:20:00,
2013-02-16 17:30:00,71.2,27.0,30.00,NNW,334,0.0,0.0,19,0.00,,,0.00,,2013-02-17 01:30:00,
2013-02-16 17:40:00,66.6,48.0,29.99,WNW,303,0.0,8.0,51,0.00,,,0.00,,2013-02-17 01:40:00,
2013-02-16 17:50:00,62.2,48.0,29.99,NW,311,1.0,3.0,59,0.00,,,0.00,,2013-02-17 01:50:00,
2013-02-16 18:00:00,59.9,47.0,29.99,NW,311,0.0,1.0,63,0.00,,,0.00,,2013-02-17 02:00:00,
2013-02-16 18:10:00,58.8,44.0,29.99,NW,311,1.0,2.0,57,0.00,,,0.00,,2013-02-17 02:10:00,
2013-02-16 18:20:00,58.0,34.0,29.99,NW,311,1.0,3.0,41,0.00,,,0.00,,2013-02-17 02:20:00,
2013-02-16 18:30:00,58.6,32.0,29.99,NW,312,1.0,3.0,37,0.00,,,0.00,,2013-02-17 02:30:00,
2013-02-16 18:40:00,60.2,32.0,29.99,NW,312,2.0,3.0,34,0.00,,,0.00,,2013-02-17 02:40:00,
2013-02-16 18:50:00,61.0,31.0,29.99,NNW,342,3.0,4.0,32,0.00,,,0.00,,2013-02-17 02:50:00,
2013-02-16 19:00:00,60.6,31.0,30.00,NNE,33,0.0,4.0,32,0.00,,,0.00,,2013-02-17 03:00:00,
2013-02-16 19:10:00,60.6,32.0,30.00,NE,48,2.0,4.0,34,0.00,,,0.00,,2013-02-17 03:10:00,
2013-02-16 19:20:00,62.1,33.0,30.00,NE,51,6.0,6.0,33,0.00,,,0.00,,2013-02-17 03:20:00,
2013-02-16 19:30:00,62.2,32.0,30.00,East,96,0.0,7.0,32,0.00,,,0.00,,2013-02-17 03:30:00,
2013-02-16 19:40:00,60.7,43.0,30.00,East,101,2.0,2.0,53,0.00,,,0.00,,2013-02-17 03:40:00,
2013-02-16 19:50:00,57.8,39.0,30.00,SE,125,3.0,4.0,50,0.00,,,0.00,,2013-02-17 03:50:00,
2013-02-16 20:00:00,56.9,35.0,29.99,SE,126,0.0,4.0,44,0.00,,,0.00,,2013-02-17 04:00:00,
2013-02-16 20:10:00,57.7,32.0,29.99,ENE,63,0.0,2.0,38,0.00,,,0.00,,2013-02-17 04:10:00,
2013-02-16 20:20:00,58.3,30.0,29.99,ENE,71,0.0,4.0,34,0.00,,,0.00,,2013-02-17 04:20:00,
2013-02-16 20:30:00,58.8,31.0,29.99,ENE,71,0.0,0.0,35,0.00,,,0.00,,2013-02-17 04:30:00,
2013-02-16 20:40:00,58.1,32.0,30.00,North,5,0.0,4.0,37,0.00,,,0.00,,2013-02-17 04:40:00,
2013-02-16 20:50:00,58.4,32.0,30.00,ENE,60,1.0,3.0,37,0.00,,,0.00,,2013-02-17 04:50:00,
2013-02-16 21:00:00,58.9,33.0,30.00,ENE,65,8.0,8.0,37,0.00,,,0.00,,2013-02-17 05:00:00,
2013-02-16 21:10:00,58.5,35.0,30.00,ESE,115,0.0,2.0,42,0.00,,,0.00,,2013-02-17 05:10:00,
2013-02-16 21:20:00,58.8,35.0,30.00,ESE,115,0.0,2.0,41,0.00,,,0.00,,2013-02-17 05:20:00,
2013-02-16 21:30:00,58.5,34.0,30.00,ESE,115,0.0,1.0,39,0.00,,,0.00,,2013-02-17 05:30:00,
2013-02-16 21:40:00,57.6,33.0,30.00,ESE,104,0.0,2.0,40,0.00,,,0.00,,2013-02-17 05:40:00,
2013-02-16 21:50:00,57.0,35.0,30.00,ESE,104,1.0,1.0,43,0.00,,,0.00,,2013-02-17 05:50:00,
2013-02-16 22:00:00,56.8,37.0,30.00,ESE,104,0.0,1.0,47,0.00,,,0.00,,2013-02-17 06:00:00,
2013-02-16 22:10:00,56.3,37.0,30.00,ESE,104,2.0,2.0,49,0.00,,,0.00,,2013-02-17 06:10:00,
2013-02-16 22:20:00,55.1,41.0,30.00,East,86,2.0,3.0,58,0.00,,,0.00,,2013-02-17 06:20:00,
2013-02-16 22:30:00,54.3,39.0,30.00,East,86,0.0,3.0,57,0.00,,,0.00,,2013-02-17 06:30:00,
2013-02-16 22:40:00,55.6,41.0,30.00,East,86,0.0,2.0,58,0.00,,,0.00,,2013-02-17 06:40:00,
2013-02-16 22:50:00,56.0,38.0,30.00,East,86,3.0,3.0,51,0.00,,,0.00,,2013-02-17 06:50:00,
2013-02-16 23:00:00,55.0,41.0,30.00,NNW,340,2.0,4.0,59,0.00,,,0.00,,2013-02-17 07:00:00,
2013-02-16 23:10:00,54.3,40.0,29.99,NNW,340,1.0,2.0,58,0.00,,,0.00,,2013-02-17 07:10:00,
2013-02-16 23:20:00,54.1,41.0,29.99,NE,54,0.0,4.0,60,0.00,,,0.00,,2013-02-17 07:20:00,
2013-02-16 23:30:00,54.8,37.0,29.99,ENE,61,1.0,4.0,50,0.00,,,0.00,,2013-02-17 07:30:00,
2013-02-16 23:40:00,54.8,37.0,29.99,North,349,0.0,3.0,51,0.00,,,0.00,,2013-02-17 07:40:00,
2013-02-16 23:50:00,55.3,39.0,29.99,North,349,0.0,1.0,54,0.00,,,0.00,,2013-02-17 07:50:00,